Year,Month,Day,Hour,Minute,Value (Times are PST for temperature in C)
2017,12,15,04,50,7.20
2017,12,15,04,51,7.20
2017,12,15,04,52,7.20
2017,12,15,04,53,7.20
2017,12,15,04,54,7.20
2017,12,15,04,55,7.20
2017,12,15,04,56,7.20
2017,12,15,04,57,7.10
2017,12,15,04,58,7.10
2017,12,15,04,59,7.10
2017,12,15,05,00,7.10
2017,12,15,05,01,7.10
2017,12,15,05,02,7.10
2017,12,15,05,03,7.10
2017,12,15,05,04,7.10
2017,12,15,05,05,7.20
2017,12,15,05,06,7.20
2017,12,15,05,07,7.20
2017,12,15,05,08,7.20
2017,12,15,05,09,7.20
2017,12,15,05,10,7.20
2017,12,15,05,11,7.20
2017,12,15,05,12,7.20
2017,12,15,05,13,7.20
2017,12,15,05,14,7.20
2017,12,15,05,15,7.30
2017,12,15,05,16,7.30
2017,12,15,05,17,7.30
2017,12,15,05,18,7.30
2017,12,15,05,19,7.40
2017,12,15,05,20,7.40
2017,12,15,05,21,7.40
2017,12,15,05,22,7.50
2017,12,15,05,23,7.50
2017,12,15,05,24,7.50
2017,12,15,05,25,7.50
2017,12,15,05,26,7.40
2017,12,15,05,27,7.40
2017,12,15,05,28,7.40
2017,12,15,05,29,7.40
2017,12,15,05,30,7.30
2017,12,15,05,31,7.30
2017,12,15,05,32,7.30
2017,12,15,05,33,7.30
2017,12,15,05,34,7.30
2017,12,15,05,35,7.30
2017,12,15,05,36,7.30
2017,12,15,05,37,7.30
2017,12,15,05,38,7.20
2017,12,15,05,39,7.20
2017,12,15,05,40,7.20
2017,12,15,05,41,7.20
2017,12,15,05,42,7.20
2017,12,15,05,43,7.20
2017,12,15,05,44,7.20
2017,12,15,05,45,7.20
2017,12,15,05,46,7.20
2017,12,15,05,47,7.20
2017,12,15,05,48,7.20
2017,12,15,05,49,7.30
2017,12,15,05,50,7.30
2017,12,15,05,51,7.30
2017,12,15,05,52,7.30
2017,12,15,05,53,7.40
2017,12,15,05,54,7.40
2017,12,15,05,55,7.40
2017,12,15,05,56,7.40
2017,12,15,05,57,7.40
2017,12,15,05,58,7.40
2017,12,15,05,59,7.40
2017,12,15,06,00,7.40
2017,12,15,06,01,7.40
2017,12,15,06,02,7.40
2017,12,15,06,03,7.40
2017,12,15,06,04,7.30
2017,12,15,06,05,7.30
2017,12,15,06,06,7.30
2017,12,15,06,07,7.30
2017,12,15,06,08,7.30
2017,12,15,06,09,7.30
2017,12,15,06,10,7.30
2017,12,15,06,11,7.30
2017,12,15,06,12,7.30
2017,12,15,06,13,7.30
2017,12,15,06,14,7.30
2017,12,15,06,15,7.30
2017,12,15,06,16,7.30
2017,12,15,06,17,7.30
2017,12,15,06,18,7.30
2017,12,15,06,19,7.30
2017,12,15,06,20,7.20
2017,12,15,06,21,7.30
2017,12,15,06,22,7.20
2017,12,15,06,23,7.20
2017,12,15,06,24,7.20
2017,12,15,06,25,7.20
2017,12,15,06,26,7.20
2017,12,15,06,27,7.20
2017,12,15,06,28,7.20
2017,12,15,06,29,7.20
2017,12,15,06,30,7.20
2017,12,15,06,31,7.20
2017,12,15,06,32,7.20
2017,12,15,06,33,7.20
2017,12,15,06,34,7.10
2017,12,15,06,35,7.10
2017,12,15,06,36,7.10
2017,12,15,06,37,7.10
2017,12,15,06,38,7.10
2017,12,15,06,39,7.10
2017,12,15,06,40,7.10
2017,12,15,06,41,7.10
2017,12,15,06,42,7.10
2017,12,15,06,43,7.10
2017,12,15,06,44,7.10
2017,12,15,06,45,7.10
2017,12,15,06,46,7.10
2017,12,15,06,47,7.10
2017,12,15,06,48,7.10
2017,12,15,06,49,7.10
2017,12,15,06,50,7.10
2017,12,15,06,51,7.10
2017,12,15,06,52,7.10
2017,12,15,06,53,7.10
2017,12,15,06,54,7.10
2017,12,15,06,55,7.10
2017,12,15,06,56,7.10
2017,12,15,06,57,7.10
2017,12,15,06,58,7.10
2017,12,15,06,59,7.10
2017,12,15,07,00,7.10
2017,12,15,07,01,7.10
2017,12,15,07,02,7.10
2017,12,15,07,03,7.10
2017,12,15,07,04,7.10
2017,12,15,07,05,7.10
2017,12,15,07,06,7.10
2017,12,15,07,07,7.10
2017,12,15,07,08,7.10
2017,12,15,07,09,7.10
2017,12,15,07,10,7.10
2017,12,15,07,11,7.10
2017,12,15,07,12,7.10
2017,12,15,07,13,7.10
2017,12,15,07,14,7.10
2017,12,15,07,15,7.10
2017,12,15,07,16,7.10
2017,12,15,07,17,7.10
2017,12,15,07,18,7.10
2017,12,15,07,19,7.10
2017,12,15,07,20,7.10
2017,12,15,07,21,7.10
2017,12,15,07,22,7.10
2017,12,15,07,23,7.10
2017,12,15,07,24,7.10
2017,12,15,07,25,7.10
2017,12,15,07,26,7.10
2017,12,15,07,27,7.10
2017,12,15,07,28,7.10
2017,12,15,07,29,7.10
2017,12,15,07,30,7.10
2017,12,15,07,31,7.10
2017,12,15,07,32,7.10
2017,12,15,07,33,7.10
2017,12,15,07,34,7.10
2017,12,15,07,35,7.10
2017,12,15,07,36,7.00
2017,12,15,07,37,7.00
2017,12,15,07,38,7.00
2017,12,15,07,39,7.00
2017,12,15,07,40,7.00
2017,12,15,07,41,6.90
2017,12,15,07,42,6.90
2017,12,15,07,43,6.90
2017,12,15,07,44,6.90
2017,12,15,07,45,6.80
2017,12,15,07,46,6.80
2017,12,15,07,47,6.80
2017,12,15,07,48,6.80
2017,12,15,07,49,6.80
2017,12,15,07,50,6.80
2017,12,15,07,51,6.80
2017,12,15,07,52,6.80
2017,12,15,07,53,6.80
2017,12,15,07,54,6.80
2017,12,15,07,55,6.70
2017,12,15,07,56,6.70
2017,12,15,07,57,6.70
2017,12,15,07,58,6.70
2017,12,15,07,59,6.70
2017,12,15,08,00,6.70
2017,12,15,08,01,6.70
2017,12,15,08,02,6.70
2017,12,15,08,03,6.70
2017,12,15,08,04,6.70
2017,12,15,08,05,6.70
2017,12,15,08,06,6.70
2017,12,15,08,07,6.70
2017,12,15,08,08,6.70
2017,12,15,08,09,6.60
2017,12,15,08,10,6.60
2017,12,15,08,11,6.60
2017,12,15,08,12,6.60
2017,12,15,08,13,6.60
2017,12,15,08,14,6.60
2017,12,15,08,15,6.60
2017,12,15,08,16,6.60
2017,12,15,08,17,6.60
2017,12,15,08,18,6.60
2017,12,15,08,19,6.60
2017,12,15,08,20,6.60
2017,12,15,08,21,6.60
2017,12,15,08,22,6.60
2017,12,15,08,23,6.60
2017,12,15,08,24,6.60
2017,12,15,08,25,6.70
2017,12,15,08,26,6.70
2017,12,15,08,27,6.70
2017,12,15,08,28,6.70
2017,12,15,08,29,6.70
2017,12,15,08,30,6.60
2017,12,15,08,31,6.70
2017,12,15,08,32,6.70
2017,12,15,08,33,6.70
2017,12,15,08,34,6.70
2017,12,15,08,35,6.70
2017,12,15,08,36,6.70
2017,12,15,08,37,6.70
2017,12,15,08,38,6.70
2017,12,15,08,39,6.70
2017,12,15,08,40,6.70
2017,12,15,08,41,6.70
2017,12,15,08,42,6.70
2017,12,15,08,43,6.70
2017,12,15,08,44,6.70
2017,12,15,08,45,6.70
2017,12,15,08,46,6.70
2017,12,15,08,47,6.70
2017,12,15,08,48,6.70
2017,12,15,08,49,6.70
2017,12,15,08,50,6.70
2017,12,15,08,51,6.70
2017,12,15,08,52,6.70
2017,12,15,08,53,6.70
2017,12,15,08,54,6.70
2017,12,15,08,55,6.70
2017,12,15,08,56,6.70
2017,12,15,08,57,6.70
2017,12,15,08,58,6.70
2017,12,15,08,59,6.70
2017,12,15,09,00,6.70
2017,12,15,09,01,6.70
2017,12,15,09,02,6.60
2017,12,15,09,03,6.60
2017,12,15,09,04,6.60
2017,12,15,09,05,6.60
2017,12,15,09,06,6.60
2017,12,15,09,07,6.60
2017,12,15,09,08,6.70
2017,12,15,09,09,6.60
2017,12,15,09,10,6.60
2017,12,15,09,11,6.60
2017,12,15,09,12,6.60
2017,12,15,09,13,6.60
2017,12,15,09,14,6.60
2017,12,15,09,15,6.60
2017,12,15,09,16,6.60
2017,12,15,09,17,6.60
2017,12,15,09,18,6.60
2017,12,15,09,19,6.60
2017,12,15,09,20,6.60
2017,12,15,09,21,6.60
2017,12,15,09,22,6.60
2017,12,15,09,23,6.60
2017,12,15,09,24,6.60
2017,12,15,09,25,6.60
2017,12,15,09,26,6.60
2017,12,15,09,27,6.60
2017,12,15,09,28,6.60
2017,12,15,09,29,6.60
2017,12,15,09,30,6.60
2017,12,15,09,31,6.60
2017,12,15,09,32,6.60
2017,12,15,09,33,6.60
2017,12,15,09,34,6.60
2017,12,15,09,35,6.60
2017,12,15,09,36,6.60
2017,12,15,09,37,6.60
2017,12,15,09,38,6.60
2017,12,15,09,39,6.60
2017,12,15,09,40,6.60
2017,12,15,09,41,6.60
2017,12,15,09,42,6.60
2017,12,15,09,43,6.60
2017,12,15,09,44,6.60
2017,12,15,09,45,6.60
2017,12,15,09,46,6.70
2017,12,15,09,47,6.70
2017,12,15,09,48,6.70
2017,12,15,09,49,6.70
2017,12,15,09,50,6.70
2017,12,15,09,51,6.70
2017,12,15,09,52,6.70
2017,12,15,09,53,6.70
2017,12,15,09,54,6.70
2017,12,15,09,55,6.70
2017,12,15,09,56,6.70
2017,12,15,09,57,6.70
2017,12,15,09,58,6.70
2017,12,15,09,59,6.70
2017,12,15,10,00,6.70
2017,12,15,10,01,6.70
2017,12,15,10,02,6.70
2017,12,15,10,03,6.70
2017,12,15,10,04,6.70
2017,12,15,10,05,6.70
2017,12,15,10,06,6.70
2017,12,15,10,07,6.70
2017,12,15,10,08,6.70
2017,12,15,10,09,6.70
2017,12,15,10,10,6.70
2017,12,15,10,11,6.70
2017,12,15,10,12,6.70
2017,12,15,10,13,6.70
2017,12,15,10,14,6.70
2017,12,15,10,15,6.70
2017,12,15,10,16,6.70
2017,12,15,10,17,6.70
2017,12,15,10,18,6.70
2017,12,15,10,19,6.70
2017,12,15,10,20,6.70
2017,12,15,10,21,6.70
2017,12,15,10,22,6.80
2017,12,15,10,23,6.80
2017,12,15,10,24,6.80
2017,12,15,10,25,6.80
2017,12,15,10,26,6.80
2017,12,15,10,27,6.80
2017,12,15,10,28,6.80
2017,12,15,10,29,6.80
2017,12,15,10,30,6.80
2017,12,15,10,31,6.80
2017,12,15,10,32,6.80
2017,12,15,10,33,6.80
2017,12,15,10,34,6.80
2017,12,15,10,35,6.80
2017,12,15,10,36,6.80
2017,12,15,10,37,6.80
2017,12,15,10,38,6.80
2017,12,15,10,39,6.80
2017,12,15,10,40,6.80
2017,12,15,10,41,6.80
2017,12,15,10,42,6.80
2017,12,15,10,43,6.80
2017,12,15,10,44,6.80
2017,12,15,10,45,6.90
2017,12,15,10,46,6.90
2017,12,15,10,47,6.90
2017,12,15,10,48,6.90
2017,12,15,10,49,6.90
2017,12,15,10,50,6.90
2017,12,15,10,51,6.90
2017,12,15,10,52,6.90
2017,12,15,10,53,6.90
2017,12,15,10,54,6.90
2017,12,15,10,55,6.90
2017,12,15,10,56,6.90
2017,12,15,10,57,6.90
2017,12,15,10,58,6.90
2017,12,15,10,59,6.90
2017,12,15,11,00,6.90
2017,12,15,11,01,6.90
2017,12,15,11,02,6.90
2017,12,15,11,03,6.90
2017,12,15,11,04,6.90
2017,12,15,11,05,6.90
2017,12,15,11,06,6.90
2017,12,15,11,07,6.90
2017,12,15,11,08,6.90
2017,12,15,11,09,6.90
2017,12,15,11,10,6.90
2017,12,15,11,11,6.90
2017,12,15,11,12,6.90
2017,12,15,11,13,6.90
2017,12,15,11,14,6.90
2017,12,15,11,15,6.90
2017,12,15,11,16,6.90
2017,12,15,11,17,6.90
2017,12,15,11,18,6.90
2017,12,15,11,19,6.90
2017,12,15,11,20,6.90
2017,12,15,11,21,6.90
2017,12,15,11,22,6.90
2017,12,15,11,23,6.90
2017,12,15,11,24,6.90
2017,12,15,11,25,6.90
2017,12,15,11,26,6.90
2017,12,15,11,27,6.90
2017,12,15,11,28,6.90
2017,12,15,11,29,6.90
2017,12,15,11,30,6.90
2017,12,15,11,31,6.90
2017,12,15,11,32,6.90
2017,12,15,11,33,6.90
2017,12,15,11,34,6.90
2017,12,15,11,35,6.90
2017,12,15,11,36,6.90
2017,12,15,11,37,6.90
2017,12,15,11,38,6.90
2017,12,15,11,39,6.90
2017,12,15,11,40,6.90
2017,12,15,11,41,6.90
2017,12,15,11,42,6.90
2017,12,15,11,43,6.90
2017,12,15,11,44,6.90
2017,12,15,11,45,6.90
2017,12,15,11,46,6.90
2017,12,15,11,47,6.90
2017,12,15,11,48,6.90
2017,12,15,11,49,6.90
2017,12,15,11,50,6.90
2017,12,15,11,51,6.90
2017,12,15,11,52,6.90
2017,12,15,11,53,6.90
2017,12,15,11,54,6.90
2017,12,15,11,55,6.90
2017,12,15,11,56,6.90
2017,12,15,11,57,6.90
2017,12,15,11,58,6.90
2017,12,15,11,59,6.90
2017,12,15,12,00,6.90
2017,12,15,12,01,6.90
2017,12,15,12,02,6.90
2017,12,15,12,03,6.90
2017,12,15,12,04,6.90
2017,12,15,12,05,6.90
2017,12,15,12,06,6.90
2017,12,15,12,07,6.90
2017,12,15,12,08,6.90
2017,12,15,12,09,6.90
2017,12,15,12,10,6.90
2017,12,15,12,11,6.90
2017,12,15,12,12,6.90
2017,12,15,12,13,6.90
2017,12,15,12,14,6.90
2017,12,15,12,15,6.90
2017,12,15,12,16,6.90
2017,12,15,12,17,6.90
2017,12,15,12,18,6.90
2017,12,15,12,19,6.90
2017,12,15,12,20,6.90
2017,12,15,12,21,6.90
2017,12,15,12,22,6.90
2017,12,15,12,23,6.90
2017,12,15,12,24,6.90
2017,12,15,12,25,6.90
2017,12,15,12,26,6.90
2017,12,15,12,27,6.90
2017,12,15,12,28,6.90
2017,12,15,12,29,6.90
2017,12,15,12,30,6.90
2017,12,15,12,31,6.90
2017,12,15,12,32,6.90
2017,12,15,12,33,6.90
2017,12,15,12,34,6.90
2017,12,15,12,35,6.90
2017,12,15,12,36,7.00
2017,12,15,12,37,7.00
2017,12,15,12,38,7.00
2017,12,15,12,39,7.00
2017,12,15,12,40,7.00
2017,12,15,12,41,7.00
2017,12,15,12,42,7.00
2017,12,15,12,43,7.00
2017,12,15,12,44,7.00
2017,12,15,12,45,7.00
2017,12,15,12,46,7.00
2017,12,15,12,47,7.00
2017,12,15,12,48,7.10
2017,12,15,12,49,7.10
2017,12,15,12,50,7.10
2017,12,15,12,51,7.10
2017,12,15,12,52,7.10
2017,12,15,12,53,7.10
2017,12,15,12,54,7.10
2017,12,15,12,55,7.10
2017,12,15,12,56,7.10
2017,12,15,12,57,7.10
2017,12,15,12,58,7.10
2017,12,15,12,59,7.10
2017,12,15,13,00,7.10
2017,12,15,13,01,7.10
2017,12,15,13,02,7.10
2017,12,15,13,03,7.10
2017,12,15,13,04,7.10
2017,12,15,13,05,7.10
2017,12,15,13,06,7.10
2017,12,15,13,07,7.20
2017,12,15,13,08,7.20
2017,12,15,13,09,7.20
2017,12,15,13,10,7.20
2017,12,15,13,11,7.20
2017,12,15,13,12,7.20
2017,12,15,13,13,7.10
2017,12,15,13,14,7.10
2017,12,15,13,15,7.10
2017,12,15,13,16,7.10
2017,12,15,13,17,7.10
2017,12,15,13,18,7.00
2017,12,15,13,19,7.00
2017,12,15,13,20,7.00
2017,12,15,13,21,7.00
2017,12,15,13,22,7.00
2017,12,15,13,23,7.00
2017,12,15,13,24,7.00
2017,12,15,13,25,7.00
2017,12,15,13,26,7.00
2017,12,15,13,27,7.00
2017,12,15,13,28,7.00
2017,12,15,13,29,7.00
2017,12,15,13,30,7.00
2017,12,15,13,31,7.00
2017,12,15,13,32,7.00
2017,12,15,13,33,7.00
2017,12,15,13,34,7.00
2017,12,15,13,35,7.10
2017,12,15,13,36,7.10
2017,12,15,13,37,7.10
2017,12,15,13,38,7.10
2017,12,15,13,39,7.10
2017,12,15,13,40,7.10
2017,12,15,13,41,7.10
2017,12,15,13,42,7.10
2017,12,15,13,43,7.10
2017,12,15,13,44,7.10
2017,12,15,13,45,7.10
2017,12,15,13,46,7.10
2017,12,15,13,47,7.10
2017,12,15,13,48,7.10
2017,12,15,13,49,7.10
2017,12,15,13,50,7.10
2017,12,15,13,51,7.10
2017,12,15,13,52,7.10
2017,12,15,13,53,7.10
2017,12,15,13,54,7.10
2017,12,15,13,55,7.10
2017,12,15,13,56,7.10
2017,12,15,13,57,7.10
2017,12,15,13,58,7.10
2017,12,15,13,59,7.10
2017,12,15,14,00,7.10
2017,12,15,14,01,7.10
2017,12,15,14,02,7.10
2017,12,15,14,03,7.10
2017,12,15,14,04,7.10
2017,12,15,14,05,7.10
2017,12,15,14,06,7.10
2017,12,15,14,07,7.10
2017,12,15,14,08,7.20
2017,12,15,14,09,7.20
2017,12,15,14,10,7.20
2017,12,15,14,11,7.20
2017,12,15,14,12,7.20
2017,12,15,14,13,7.20
2017,12,15,14,14,7.20
2017,12,15,14,15,7.20
2017,12,15,14,16,7.20
2017,12,15,14,17,7.20
2017,12,15,14,18,7.20
2017,12,15,14,19,7.20
2017,12,15,14,20,7.20
2017,12,15,14,21,7.20
2017,12,15,14,22,7.20
2017,12,15,14,23,7.20
2017,12,15,14,24,7.20
2017,12,15,14,25,7.20
2017,12,15,14,26,7.20
2017,12,15,14,27,7.20
2017,12,15,14,28,7.20
2017,12,15,14,29,7.20
2017,12,15,14,30,7.20
2017,12,15,14,31,7.30
2017,12,15,14,32,7.30
2017,12,15,14,33,7.30
2017,12,15,14,34,7.30
2017,12,15,14,35,7.30
2017,12,15,14,36,7.30
2017,12,15,14,37,7.40
2017,12,15,14,38,7.40
2017,12,15,14,39,7.40
2017,12,15,14,40,7.40
2017,12,15,14,41,7.40
2017,12,15,14,42,7.40
2017,12,15,14,43,7.40
2017,12,15,14,44,7.40
2017,12,15,14,45,7.40
2017,12,15,14,46,7.40
2017,12,15,14,47,7.50
2017,12,15,14,48,7.50
2017,12,15,14,49,7.50
2017,12,15,14,50,7.60
2017,12,15,14,51,7.50
2017,12,15,14,52,7.50
2017,12,15,14,53,7.50
2017,12,15,14,54,7.60
2017,12,15,14,55,7.60
2017,12,15,14,56,7.70
2017,12,15,14,57,7.70
2017,12,15,14,58,7.70
2017,12,15,14,59,7.70
2017,12,15,15,00,7.70
2017,12,15,15,01,7.70
2017,12,15,15,02,7.70
2017,12,15,15,03,7.80
2017,12,15,15,04,7.80
2017,12,15,15,05,7.80
2017,12,15,15,06,7.80
2017,12,15,15,07,7.70
2017,12,15,15,08,7.70
2017,12,15,15,09,7.70
2017,12,15,15,10,7.60
2017,12,15,15,11,7.60
2017,12,15,15,12,7.60
2017,12,15,15,13,7.60
2017,12,15,15,14,7.60
2017,12,15,15,15,7.60
2017,12,15,15,16,7.50
2017,12,15,15,17,7.50
2017,12,15,15,18,7.50
2017,12,15,15,19,7.50
2017,12,15,15,20,7.60
2017,12,15,15,21,7.60
2017,12,15,15,22,7.60
2017,12,15,15,23,7.60
2017,12,15,15,24,7.60
2017,12,15,15,25,7.60
2017,12,15,15,26,7.60
2017,12,15,15,27,7.60
2017,12,15,15,28,7.70
2017,12,15,15,29,7.70
2017,12,15,15,30,7.70
2017,12,15,15,31,7.70
2017,12,15,15,32,7.70
2017,12,15,15,33,7.70
2017,12,15,15,34,7.70
2017,12,15,15,35,7.70
2017,12,15,15,36,7.70
2017,12,15,15,37,7.70
2017,12,15,15,38,7.70
2017,12,15,15,39,7.70
2017,12,15,15,40,7.70
2017,12,15,15,41,7.70
2017,12,15,15,42,7.70
2017,12,15,15,43,7.70
2017,12,15,15,44,7.60
2017,12,15,15,45,7.60
2017,12,15,15,46,7.70
2017,12,15,15,47,7.60
2017,12,15,15,48,7.60
2017,12,15,15,49,7.60
2017,12,15,15,50,7.60
2017,12,15,15,51,7.60
2017,12,15,15,52,7.60
2017,12,15,15,53,7.60
2017,12,15,15,54,7.60
2017,12,15,15,55,7.60
2017,12,15,15,56,7.60
2017,12,15,15,57,7.60
2017,12,15,15,58,7.60
2017,12,15,15,59,7.60
2017,12,15,16,00,7.60
2017,12,15,16,01,7.60
2017,12,15,16,02,7.60
2017,12,15,16,03,7.60
2017,12,15,16,04,7.60
2017,12,15,16,05,7.50
2017,12,15,16,06,7.50
2017,12,15,16,07,7.50
2017,12,15,16,08,7.50
2017,12,15,16,09,7.50
2017,12,15,16,10,7.50
2017,12,15,16,11,7.50
2017,12,15,16,12,7.50
2017,12,15,16,13,7.50
2017,12,15,16,14,7.40
2017,12,15,16,15,7.40
2017,12,15,16,16,7.40
2017,12,15,16,17,7.40
2017,12,15,16,18,7.40
2017,12,15,16,19,7.40
2017,12,15,16,20,7.30
2017,12,15,16,21,7.30
2017,12,15,16,22,7.30
2017,12,15,16,23,7.30
2017,12,15,16,24,7.20
2017,12,15,16,25,7.20
2017,12,15,16,26,7.20
2017,12,15,16,27,7.20
2017,12,15,16,28,7.20
2017,12,15,16,29,7.20
2017,12,15,16,30,7.20
2017,12,15,16,31,7.20
2017,12,15,16,32,7.20
2017,12,15,16,33,7.10
2017,12,15,16,34,7.10
2017,12,15,16,35,7.00
2017,12,15,16,36,7.00
2017,12,15,16,37,6.90
2017,12,15,16,38,6.90
2017,12,15,16,39,6.90
2017,12,15,16,40,6.90
2017,12,15,16,41,6.90
2017,12,15,16,42,6.80
2017,12,15,16,43,6.80
2017,12,15,16,44,6.80
2017,12,15,16,45,6.80
2017,12,15,16,46,6.80
2017,12,15,16,47,6.80
2017,12,15,16,48,6.80
2017,12,15,16,49,6.80
2017,12,15,16,50,6.80
2017,12,15,16,51,6.80
2017,12,15,16,52,6.90
2017,12,15,16,53,6.90
2017,12,15,16,54,6.80
2017,12,15,16,55,6.80
2017,12,15,16,56,6.80
2017,12,15,16,57,6.70
2017,12,15,16,58,6.70
2017,12,15,16,59,6.70
2017,12,15,17,00,6.60
2017,12,15,17,01,6.60
2017,12,15,17,02,6.50
2017,12,15,17,03,6.50
2017,12,15,17,04,6.50
2017,12,15,17,05,6.50
2017,12,15,17,06,6.40
2017,12,15,17,07,6.40
2017,12,15,17,08,6.40
2017,12,15,17,09,6.30
2017,12,15,17,10,6.30
2017,12,15,17,11,6.30
2017,12,15,17,12,6.30
2017,12,15,17,13,6.30
2017,12,15,17,14,6.20
2017,12,15,17,15,6.20
2017,12,15,17,16,6.20
2017,12,15,17,17,6.20
2017,12,15,17,18,6.20
2017,12,15,17,19,6.10
2017,12,15,17,20,6.10
2017,12,15,17,21,6.10
2017,12,15,17,22,6.10
2017,12,15,17,23,6.10
2017,12,15,17,24,6.10
2017,12,15,17,25,6.20
2017,12,15,17,26,6.20
2017,12,15,17,27,6.20
2017,12,15,17,28,6.20
2017,12,15,17,29,6.30
2017,12,15,17,30,6.30
2017,12,15,17,31,6.30
2017,12,15,17,32,6.30
2017,12,15,17,33,6.30
2017,12,15,17,34,6.40
2017,12,15,17,35,6.40
2017,12,15,17,36,6.40
2017,12,15,17,37,6.40
2017,12,15,17,38,6.50
2017,12,15,17,39,6.50
2017,12,15,17,40,6.50
2017,12,15,17,41,6.50
2017,12,15,17,42,6.50
2017,12,15,17,43,6.50
2017,12,15,17,44,6.60
2017,12,15,17,45,6.60
2017,12,15,17,46,6.60
2017,12,15,17,47,6.60
2017,12,15,17,48,6.60
2017,12,15,17,49,6.50
2017,12,15,17,50,6.50
2017,12,15,17,51,6.40
2017,12,15,17,52,6.40
2017,12,15,17,53,6.40
2017,12,15,17,54,6.30
2017,12,15,17,55,6.30
2017,12,15,17,56,6.30
2017,12,15,17,57,6.30
2017,12,15,17,58,6.30
2017,12,15,17,59,6.30
2017,12,15,18,00,6.30
2017,12,15,18,01,6.30
2017,12,15,18,02,6.30
2017,12,15,18,03,6.30
2017,12,15,18,04,6.30
2017,12,15,18,05,6.30
2017,12,15,18,06,6.30
2017,12,15,18,07,6.30
2017,12,15,18,08,6.30
2017,12,15,18,09,6.30
2017,12,15,18,10,6.20
2017,12,15,18,11,6.20
2017,12,15,18,12,6.20
2017,12,15,18,13,6.20
2017,12,15,18,14,6.20
2017,12,15,18,15,6.20
2017,12,15,18,16,6.10
2017,12,15,18,17,6.10
2017,12,15,18,18,6.10
2017,12,15,18,19,6.10
2017,12,15,18,20,6.10
2017,12,15,18,21,6.10
2017,12,15,18,22,6.10
2017,12,15,18,23,6.10
2017,12,15,18,24,6.10
2017,12,15,18,25,6.10
2017,12,15,18,26,6.10
2017,12,15,18,27,6.10
2017,12,15,18,28,6.10
2017,12,15,18,29,6.00
2017,12,15,18,30,6.00
2017,12,15,18,31,6.00
2017,12,15,18,32,5.90
2017,12,15,18,33,5.90
2017,12,15,18,34,5.90
2017,12,15,18,35,5.90
2017,12,15,18,36,5.80
2017,12,15,18,37,5.80
2017,12,15,18,38,5.80
2017,12,15,18,39,5.80
2017,12,15,18,40,5.80
2017,12,15,18,41,5.80
2017,12,15,18,42,5.70
2017,12,15,18,43,5.70
2017,12,15,18,44,5.70
2017,12,15,18,45,5.70
2017,12,15,18,46,5.70
2017,12,15,18,47,5.70
2017,12,15,18,48,5.70
2017,12,15,18,49,5.70
2017,12,15,18,50,5.70
2017,12,15,18,51,5.60
2017,12,15,18,52,5.60
2017,12,15,18,53,5.60
2017,12,15,18,54,5.60
2017,12,15,18,55,5.60
2017,12,15,18,56,5.60
2017,12,15,18,57,5.60
2017,12,15,18,58,5.60
2017,12,15,18,59,5.60
2017,12,15,19,00,5.60
2017,12,15,19,01,5.60
2017,12,15,19,02,5.60
2017,12,15,19,03,5.50
2017,12,15,19,04,5.60
2017,12,15,19,05,5.60
2017,12,15,19,06,5.60
2017,12,15,19,07,5.50
2017,12,15,19,08,5.40
2017,12,15,19,09,5.40
2017,12,15,19,10,5.30
2017,12,15,19,11,5.30
2017,12,15,19,12,5.40
2017,12,15,19,13,5.40
2017,12,15,19,14,5.40
2017,12,15,19,15,5.40
2017,12,15,19,16,5.40
2017,12,15,19,17,5.50
2017,12,15,19,18,5.50
2017,12,15,19,19,5.50
2017,12,15,19,20,5.40
2017,12,15,19,21,5.40
2017,12,15,19,22,5.40
2017,12,15,19,23,5.40
2017,12,15,19,24,5.40
2017,12,15,19,25,5.40
2017,12,15,19,26,5.40
2017,12,15,19,27,5.40
2017,12,15,19,28,5.40
2017,12,15,19,29,5.30
2017,12,15,19,30,5.30
2017,12,15,19,31,5.30
2017,12,15,19,32,5.30
2017,12,15,19,33,5.30
2017,12,15,19,34,5.30
2017,12,15,19,35,5.30
2017,12,15,19,36,5.20
2017,12,15,19,37,5.20
2017,12,15,19,38,5.20
2017,12,15,19,39,5.20
2017,12,15,19,40,5.20
2017,12,15,19,41,5.20
2017,12,15,19,42,5.20
2017,12,15,19,43,5.20
2017,12,15,19,44,5.10
2017,12,15,19,45,5.10
2017,12,15,19,46,5.10
2017,12,15,19,47,5.10
2017,12,15,19,48,5.10
2017,12,15,19,49,5.10
2017,12,15,19,50,5.10
2017,12,15,19,51,5.10
2017,12,15,19,52,5.10
2017,12,15,19,53,5.10
2017,12,15,19,54,5.00
2017,12,15,19,55,5.00
2017,12,15,19,56,5.00
2017,12,15,19,57,4.90
2017,12,15,19,58,4.90
2017,12,15,19,59,4.90
2017,12,15,20,00,4.80
2017,12,15,20,01,4.80
2017,12,15,20,02,4.80
2017,12,15,20,03,4.80
2017,12,15,20,04,4.80
2017,12,15,20,05,4.70
2017,12,15,20,06,4.70
2017,12,15,20,07,4.70
2017,12,15,20,08,4.80
2017,12,15,20,09,4.80
2017,12,15,20,10,4.80
2017,12,15,20,11,4.80
2017,12,15,20,12,4.80
2017,12,15,20,13,4.80
2017,12,15,20,14,4.70
2017,12,15,20,15,4.70
2017,12,15,20,16,4.70
2017,12,15,20,17,4.70
2017,12,15,20,18,4.70
2017,12,15,20,19,4.70
2017,12,15,20,20,4.70
2017,12,15,20,21,4.70
2017,12,15,20,22,4.70
2017,12,15,20,23,4.70
2017,12,15,20,24,4.70
2017,12,15,20,25,4.70
2017,12,15,20,26,4.70
2017,12,15,20,27,4.60
2017,12,15,20,28,4.60
2017,12,15,20,29,4.60
2017,12,15,20,30,4.70
2017,12,15,20,31,4.70
2017,12,15,20,32,4.80
2017,12,15,20,33,4.80
2017,12,15,20,34,4.80
2017,12,15,20,35,4.90
2017,12,15,20,36,4.90
2017,12,15,20,37,4.90
2017,12,15,20,38,5.00
2017,12,15,20,39,5.00
2017,12,15,20,40,5.00
2017,12,15,20,41,5.00
2017,12,15,20,42,5.10
2017,12,15,20,43,5.10
2017,12,15,20,44,5.10
2017,12,15,20,45,5.10
2017,12,15,20,46,5.10
2017,12,15,20,47,5.00
2017,12,15,20,48,5.00
2017,12,15,20,49,4.90
2017,12,15,20,50,4.90
2017,12,15,20,51,4.90
2017,12,15,20,52,4.90
2017,12,15,20,53,4.80
2017,12,15,20,54,4.80
2017,12,15,20,55,4.80
2017,12,15,20,56,4.90
2017,12,15,20,57,4.90
2017,12,15,20,58,4.90
2017,12,15,20,59,4.90
2017,12,15,21,00,4.90
2017,12,15,21,01,4.90
2017,12,15,21,02,4.90
2017,12,15,21,03,4.80
2017,12,15,21,04,4.80
2017,12,15,21,05,4.80
2017,12,15,21,06,4.80
2017,12,15,21,07,4.70
2017,12,15,21,08,4.70
2017,12,15,21,09,4.60
2017,12,15,21,10,4.60
2017,12,15,21,11,4.60
2017,12,15,21,12,4.50
2017,12,15,21,13,4.40
2017,12,15,21,14,4.40
2017,12,15,21,15,4.30
2017,12,15,21,16,4.20
2017,12,15,21,17,4.20
2017,12,15,21,18,4.20
2017,12,15,21,19,4.20
2017,12,15,21,20,4.20
2017,12,15,21,21,4.20
2017,12,15,21,22,4.20
2017,12,15,21,23,4.20
2017,12,15,21,24,4.20
2017,12,15,21,25,4.20
2017,12,15,21,26,4.20
2017,12,15,21,27,4.20
2017,12,15,21,28,4.20
2017,12,15,21,29,4.20
2017,12,15,21,30,4.20
2017,12,15,21,31,4.20
2017,12,15,21,32,4.20
2017,12,15,21,33,4.20
2017,12,15,21,34,4.20
2017,12,15,21,35,4.20
2017,12,15,21,36,4.10
2017,12,15,21,37,4.10
2017,12,15,21,38,4.10
2017,12,15,21,39,4.10
2017,12,15,21,40,4.10
2017,12,15,21,41,4.10
2017,12,15,21,42,4.10
2017,12,15,21,43,4.00
2017,12,15,21,44,4.00
2017,12,15,21,45,4.00
2017,12,15,21,46,4.00
2017,12,15,21,47,4.00
2017,12,15,21,48,4.00
2017,12,15,21,49,4.00
2017,12,15,21,50,3.90
2017,12,15,21,51,3.90
2017,12,15,21,52,3.90
2017,12,15,21,53,3.90
2017,12,15,21,54,3.90
2017,12,15,21,55,3.90
2017,12,15,21,56,3.90
2017,12,15,21,57,3.90
2017,12,15,21,58,3.90
2017,12,15,21,59,3.90
2017,12,15,22,00,3.90
2017,12,15,22,01,3.90
2017,12,15,22,02,3.90
2017,12,15,22,03,3.90
2017,12,15,22,04,4.00
2017,12,15,22,05,4.00
2017,12,15,22,06,4.10
2017,12,15,22,07,4.10
2017,12,15,22,08,4.20
2017,12,15,22,09,4.20
2017,12,15,22,10,4.20
2017,12,15,22,11,4.20
2017,12,15,22,12,4.20
2017,12,15,22,13,4.20
2017,12,15,22,14,4.20
2017,12,15,22,15,4.20
2017,12,15,22,16,4.20
2017,12,15,22,17,4.20
2017,12,15,22,18,4.20
2017,12,15,22,19,4.20
2017,12,15,22,20,4.20
2017,12,15,22,21,4.20
2017,12,15,22,22,4.10
2017,12,15,22,23,4.10
2017,12,15,22,24,4.20
2017,12,15,22,25,4.20
2017,12,15,22,26,4.20
2017,12,15,22,27,4.10
2017,12,15,22,28,4.10
2017,12,15,22,29,4.10
2017,12,15,22,30,4.10
2017,12,15,22,31,4.10
2017,12,15,22,32,4.00
2017,12,15,22,33,4.00
2017,12,15,22,34,4.00
2017,12,15,22,35,4.00
2017,12,15,22,36,4.00
2017,12,15,22,37,4.00
2017,12,15,22,38,4.00
2017,12,15,22,39,4.00
2017,12,15,22,40,4.10
2017,12,15,22,41,4.10
2017,12,15,22,42,4.10
2017,12,15,22,43,4.20
2017,12,15,22,44,4.30
2017,12,15,22,45,4.30
2017,12,15,22,46,4.40
2017,12,15,22,47,4.40
2017,12,15,22,48,4.50
2017,12,15,22,49,4.60
2017,12,15,22,50,4.60
2017,12,15,22,51,4.60
2017,12,15,22,52,4.70
2017,12,15,22,53,4.70
2017,12,15,22,54,4.80
2017,12,15,22,55,4.80
2017,12,15,22,56,4.80